^^
Saratoga-Weather Station Historical Data
Daily Summary for July 2, 2021 Units:  English    Metric   Both
Daily Weekly Monthly Yearly Custom
  High: Low: Average:
Temperature: 66.9 °F 53.2 °F 59.2 °F
Dew Point: 58.3 °F 51.1 °F 54.5 °F
Humidity: 94% 68% 85%
Wind Speed: 8.1mph 0mph 1.4mph
Wind Gust: 11mph - -
Wind- - ESE
Pressure: 30 in 29.6 in -
Precipitation: 0.11 in    
Historical Graphs
 
 
Tabular Data for July 2, 2021
Time Temperature Dew Point Pressure Wind Wind Speed Wind Gust Humidity Rainfall Rate (Hourly) solar
00:03 55 °F 51.3 °F 30 in WNW 2.9 mph 5 mph 87% 0 in 0 W/m2
00:08 54.9 °F 51.1 °F 30 in NNW 2 mph 2 mph 87% 0 in 0 W/m2
00:13 54.9 °F 51.1 °F 30 in NW 0.9 mph 5 mph 87% 0 in 0 W/m2
00:18 55 °F 51.3 °F 30 in WNW 0.9 mph 2 mph 87% 0 in 0 W/m2
00:23 55 °F 51.3 °F 30 in WNW 0.9 mph 6 mph 87% 0 in 0 W/m2
00:28 54.9 °F 51.4 °F 30 in NW 2 mph 4 mph 88% 0 in 0 W/m2
00:33 54.9 °F 51.4 °F 30 in WNW 2 mph 6 mph 88% 0 in 0 W/m2
00:38 55 °F 51.6 °F 30 in West 4 mph 4 mph 88% 0 in 0 W/m2
00:43 55 °F 51.3 °F 30 in NW 2.9 mph 6 mph 87% 0 in 0 W/m2
00:48 55 °F 51.6 °F 30 in NNW 0.9 mph 3 mph 88% 0 in 0 W/m2
00:53 54.9 °F 51.4 °F 30 in WNW 4 mph 7 mph 88% 0 in 0 W/m2
00:58 54.7 °F 51.4 °F 30 in NW 4.9 mph 9 mph 89% 0.01 in 0 W/m2
01:03 54.7 °F 51.8 °F 30 in WNW 2.9 mph 5 mph 90% 0.02 in 0 W/m2
01:08 54.5 °F 51.6 °F 30 in NNW 0.9 mph 9 mph 90% 0.03 in 0 W/m2
01:13 54.3 °F 51.4 °F 30 in NW 2 mph 4 mph 90% 0.04 in 0 W/m2
01:18 54.3 °F 51.8 °F 30 in Calm   3 mph 91% 0.04 in 0 W/m2
01:23 54.3 °F 51.8 °F 30 in Calm   4 mph 91% 0.04 in 0 W/m2
01:28 54.3 °F 51.8 °F 30 in NNW 0.9 mph 1 mph 91% 0.04 in 0 W/m2
01:33 54.1 °F 51.6 °F 30 in Calm   1 mph 91% 0.04 in 0 W/m2
01:38 54.1 °F 51.6 °F 30 in Calm   2 mph 91% 0.04 in 0 W/m2
01:43 54.1 °F 51.6 °F 30 in Calm   1 mph 91% 0.04 in 0 W/m2
01:48 54.1 °F 51.8 °F 30 in Calm     92% 0.04 in 0 W/m2
01:53 54 °F 51.6 °F 30 in North 0.9 mph 1 mph 92% 0.04 in 0 W/m2
01:58 54 °F 51.6 °F 30 in Calm   1 mph 92% 0.03 in 0 W/m2
02:03 54 °F 51.6 °F 30 in Calm     92% 0.02 in 0 W/m2
02:08 53.8 °F 51.4 °F 30 in Calm     92% 0.01 in 0 W/m2
02:13 53.8 °F 51.8 °F 30 in Calm   1 mph 93% 0 in 0 W/m2
02:18 53.8 °F 51.8 °F 30 in Calm   1 mph 93% 0 in 0 W/m2
02:23 53.8 °F 51.8 °F 30 in East 2 mph 2 mph 93% 0 in 0 W/m2
02:28 53.8 °F 51.8 °F 30 in East 0.9 mph 2 mph 93% 0 in 0 W/m2
02:33 53.6 °F 51.6 °F 30 in Calm   1 mph 93% 0 in 0 W/m2
02:38 53.6 °F 51.6 °F 30 in East 0.9 mph 2 mph 93% 0 in 0 W/m2
02:43 53.8 °F 51.8 °F 30 in East 0.9 mph 3 mph 93% 0 in 0 W/m2
02:48 53.8 °F 51.8 °F 30 in Calm   2 mph 93% 0 in 0 W/m2
02:53 53.8 °F 51.8 °F 30 in Calm   3 mph 93% 0 in 0 W/m2
02:58 53.8 °F 51.8 °F 30 in Calm   1 mph 93% 0 in 0 W/m2
03:03 53.8 °F 51.8 °F 30 in Calm   1 mph 93% 0 in 0 W/m2
03:08 53.6 °F 52 °F 30 in Calm   1 mph 94% 0 in 0 W/m2
03:13 53.6 °F 52 °F 30 in Calm     94% 0 in 0 W/m2
03:19 53.4 °F 51.8 °F 30 in Calm     94% 0 in 0 W/m2
03:24 53.4 °F 51.8 °F 30 in Calm     94% 0 in 0 W/m2
03:29 53.4 °F 51.8 °F 30 in Calm     94% 0 in 0 W/m2
03:34 53.2 °F 51.6 °F 30 in Calm     94% 0 in 0 W/m2
03:39 53.2 °F 51.6 °F 30 in Calm   1 mph 94% 0 in 0 W/m2
03:44 53.2 °F 51.6 °F 30 in Calm   3 mph 94% 0 in 0 W/m2
03:49 53.2 °F 51.6 °F 30 in East 0.9 mph 1 mph 94% 0 in 0 W/m2
03:54 53.2 °F 51.6 °F 30 in Calm   3 mph 94% 0 in 0 W/m2
03:59 53.4 °F 51.8 °F 30 in ENE 0.9 mph 2 mph 94% 0 in 0 W/m2
04:04 53.4 °F 51.8 °F 30 in ENE 2.9 mph 3 mph 94% 0 in 0 W/m2
04:09 53.6 °F 52 °F 30 in NE 2 mph 3 mph 94% 0 in 0 W/m2
04:14 53.8 °F 52.2 °F 30 in Calm   1 mph 94% 0 in 0 W/m2
04:19 54 °F 52 °F 30 in East 0.9 mph 2 mph 93% 0 in 0 W/m2
04:24 54.1 °F 52.2 °F 30 in NE 2 mph 2 mph 93% 0 in 0 W/m2
04:29 54.5 °F 52.5 °F 30 in North 2 mph 5 mph 93% 0 in 0 W/m2
04:34 54.7 °F 52.3 °F 30 in NE 2 mph 3 mph 92% 0 in 0 W/m2
04:39 54.9 °F 52.5 °F 30 in WNW 0.9 mph 5 mph 92% 0 in 0 W/m2
04:44 54.9 °F 52.3 °F 30 in NNW 2 mph 4 mph 91% 0 in 0 W/m2
04:49 55 °F 52.5 °F 29.9 in East 2 mph 2 mph 91% 0 in 0 W/m2
04:54 55 °F 52.5 °F 29.9 in North 2 mph 2 mph 91% 0 in 0 W/m2
04:59 55 °F 52.5 °F 29.9 in North 0.9 mph 3 mph 91% 0 in 0 W/m2
05:04 55 °F 52.5 °F 29.9 in Calm   2 mph 91% 0 in 0 W/m2
05:09 55 °F 52.5 °F 29.9 in NW 0.9 mph 3 mph 91% 0 in 0 W/m2
05:14 55 °F 52.5 °F 30 in North 0.9 mph 3 mph 91% 0 in 0 W/m2
05:19 55 °F 52.5 °F 29.9 in ENE 0.9 mph 3 mph 91% 0 in 0 W/m2
05:24 54.9 °F 52.3 °F 29.9 in Calm   1 mph 91% 0 in 0 W/m2
05:29 54.9 °F 52.3 °F 29.9 in Calm   4 mph 91% 0 in 0 W/m2
05:34 54.9 °F 52.3 °F 29.9 in Calm   1 mph 91% 0 in 0 W/m2
05:39 54.9 °F 52.3 °F 29.9 in West 2 mph 2 mph 91% 0.01 in 0 W/m2
05:44 54.9 °F 52.3 °F 29.9 in Calm   2 mph 91% 0.01 in 0 W/m2
05:49 54.9 °F 52.3 °F 29.9 in Calm   2 mph 91% 0.01 in 0 W/m2
05:54 54.7 °F 52.2 °F 29.9 in NNW 0.9 mph 2 mph 91% 0.02 in 0 W/m2
05:59 54.7 °F 52.3 °F 29.9 in Calm   3 mph 92% 0.02 in 0 W/m2
06:04 54.7 °F 52.3 °F 29.9 in NE 0.9 mph 2 mph 92% 0.02 in 0 W/m2
06:09 54.7 °F 52.3 °F 29.9 in Calm   4 mph 92% 0.02 in 0 W/m2
06:14 54.7 °F 52.3 °F 29.9 in ENE 0.9 mph 1 mph 92% 0.02 in 0 W/m2
06:19 54.5 °F 52.5 °F 29.9 in ENE 0.9 mph 3 mph 93% 0.02 in 0 W/m2
06:24 54.5 °F 52.5 °F 29.9 in NE 0.9 mph 2 mph 93% 0.03 in 0 W/m2
06:29 54.5 °F 52.5 °F 29.9 in Calm   2 mph 93% 0.03 in 0 W/m2
06:34 54.5 °F 52.5 °F 29.9 in NE 0.9 mph 3 mph 93% 0.04 in 0 W/m2
06:39 54.3 °F 52.3 °F 29.9 in NE 2 mph 3 mph 93% 0.03 in 0 W/m2
06:44 54.3 °F 52.3 °F 29.9 in Calm   3 mph 93% 0.03 in 0 W/m2
06:49 54.3 °F 52.7 °F 29.9 in NE 2 mph 3 mph 94% 0.03 in 0 W/m2
06:54 54.3 °F 52.7 °F 29.9 in NE 0.9 mph 1 mph 94% 0.02 in 0 W/m2
06:59 54.1 °F 52.5 °F 29.9 in NE 2 mph 2 mph 94% 0.02 in 0 W/m2
07:04 54.1 °F 52.5 °F 29.9 in Calm   1 mph 94% 0.02 in 0 W/m2
07:09 54.1 °F 52.5 °F 29.9 in Calm     94% 0.02 in 0 W/m2
07:14 54.1 °F 52.5 °F 29.9 in Calm   1 mph 94% 0.02 in 0 W/m2
07:19 54.1 °F 52.5 °F 29.9 in NE 0.9 mph 3 mph 94% 0.02 in 0 W/m2
07:24 54.1 °F 52.5 °F 29.9 in NNE 2 mph 2 mph 94% 0.01 in 0 W/m2
07:29 54.1 °F 52.5 °F 29.9 in NE 0.9 mph 3 mph 94% 0.01 in 0 W/m2
07:34 54.1 °F 52.5 °F 29.9 in Calm   2 mph 94% 0 in 0 W/m2
07:39 54.1 °F 52.5 °F 29.9 in NE 0.9 mph 4 mph 94% 0 in 0 W/m2
07:44 54.1 °F 52.5 °F 29.9 in NE 2.9 mph 4 mph 94% 0 in 0 W/m2
07:49 54.1 °F 52.5 °F 29.9 in NE 2 mph 5 mph 94% 0 in 0 W/m2
07:54 54.1 °F 52.5 °F 29.9 in Calm   2 mph 94% 0 in 7 W/m2
07:59 54.1 °F 52.5 °F 29.9 in NE 0.9 mph 5 mph 94% 0 in 7 W/m2
08:04 54.1 °F 52.5 °F 29.9 in NNE 2 mph 3 mph 94% 0 in 12 W/m2
08:09 54.1 °F 52.5 °F 29.9 in NNE 0.9 mph 2 mph 94% 0 in 14 W/m2
08:14 54.1 °F 52.5 °F 29.9 in Calm   1 mph 94% 0 in 14 W/m2
08:19 54.3 °F 52.7 °F 29.9 in North 0.9 mph 2 mph 94% 0 in 14 W/m2
08:24 54.3 °F 52.7 °F 29.9 in North 0.9 mph 1 mph 94% 0 in 19 W/m2
08:29 54.3 °F 52.7 °F 29.9 in Calm     94% 0 in 21 W/m2
08:34 54.3 °F 52.7 °F 29.9 in NE 0.9 mph 1 mph 94% 0 in 26 W/m2
08:39 54.5 °F 52.9 °F 29.9 in NE 2.9 mph 3 mph 94% 0 in 33 W/m2
08:44 54.5 °F 52.9 °F 29.9 in NE 2 mph 2 mph 94% 0 in 40 W/m2
08:49 54.7 °F 53.1 °F 29.9 in Calm   2 mph 94% 0 in 32 W/m2
08:54 54.7 °F 53.1 °F 29.9 in NE 2.9 mph 4 mph 94% 0 in 49 W/m2
08:59 54.7 °F 53.1 °F 29.9 in NE 0.9 mph 3 mph 94% 0 in 65 W/m2
09:04 54.9 °F 53.2 °F 29.9 in Calm   2 mph 94% 0.01 in 44 W/m2
09:09 54.9 °F 53.2 °F 29.9 in Calm   2 mph 94% 0.01 in 53 W/m2
09:14 54.9 °F 53.2 °F 29.9 in NE 2 mph 2 mph 94% 0.01 in 81 W/m2
09:19 55 °F 53.4 °F 29.9 in Calm   2 mph 94% 0.01 in 84 W/m2
09:24 55.2 °F 53.6 °F 29.9 in Calm   3 mph 94% 0.01 in 272 W/m2
09:29 55.2 °F 53.6 °F 29.9 in Calm   2 mph 94% 0.01 in 137 W/m2
09:34 55.6 °F 54 °F 29.9 in Calm   2 mph 94% 0.01 in 116 W/m2
09:39 55.6 °F 54 °F 29.9 in NE 0.9 mph 3 mph 94% 0.01 in 56 W/m2
09:44 55.8 °F 53.8 °F 29.9 in East 2 mph 4 mph 93% 0.01 in 69 W/m2
09:49 55.8 °F 53.8 °F 29.9 in Calm     93% 0.01 in 46 W/m2
09:54 55.8 °F 53.8 °F 29.9 in NE 0.9 mph 2 mph 93% 0.01 in 32 W/m2
09:59 55.9 °F 54 °F 29.9 in NE 0.9 mph 3 mph 93% 0.01 in 49 W/m2
10:04 55.9 °F 54 °F 29.9 in Calm   2 mph 93% 0 in 81 W/m2
10:09 55.9 °F 54 °F 29.9 in Calm   2 mph 93% 0 in 109 W/m2
10:14 56.1 °F 54.1 °F 29.9 in NNE 0.9 mph 2 mph 93% 0 in 69 W/m2
10:19 56.1 °F 54.1 °F 29.9 in WNW 0.9 mph 2 mph 93% 0 in 132 W/m2
10:24 56.1 °F 54.1 °F 29.9 in NNW 2 mph 4 mph 93% 0 in 158 W/m2
10:29 56.5 °F 54.5 °F 29.9 in Calm   2 mph 93% 0 in 148 W/m2
10:34 56.7 °F 54.3 °F 29.9 in NNW 0.9 mph 2 mph 92% 0 in 149 W/m2
10:39 56.8 °F 54.5 °F 29.9 in NE 0.9 mph 3 mph 92% 0 in 109 W/m2
10:44 57 °F 54.7 °F 29.9 in NNE 2 mph 2 mph 92% 0 in 98 W/m2
10:49 57 °F 54.7 °F 29.9 in ENE 2.9 mph 4 mph 92% 0 in 137 W/m2
10:54 57.2 °F 54.7 °F 29.9 in Calm   4 mph 91% 0 in 111 W/m2
10:59 57.4 °F 54.9 °F 29.9 in North 2 mph 4 mph 91% 0 in 214 W/m2
11:04 57.6 °F 55 °F 29.9 in North 2.9 mph 5 mph 91% 0 in 216 W/m2
11:09 57.6 °F 54.7 °F 29.9 in NNW 2 mph 3 mph 90% 0 in 81 W/m2
11:14 57.6 °F 54.7 °F 29.9 in Calm   3 mph 90% 0 in 60 W/m2
11:19 57.6 °F 54.7 °F 29.9 in NNW 0.9 mph 2 mph 90% 0 in 72 W/m2
11:24 57.6 °F 54.7 °F 29.9 in NNE 2 mph 2 mph 90% 0 in 97 W/m2
11:29 57.7 °F 54.9 °F 29.9 in NNE 0.9 mph 2 mph 90% 0 in 158 W/m2
11:34 57.9 °F 55 °F 29.9 in Calm   2 mph 90% 0 in 172 W/m2
11:39 58.1 °F 54.9 °F 29.9 in Calm   5 mph 89% 0 in 176 W/m2
11:44 58.3 °F 55 °F 29.9 in ENE 0.9 mph 3 mph 89% 0 in 190 W/m2
11:49 58.5 °F 55.2 °F 29.9 in East 2 mph 2 mph 89% 0 in 225 W/m2
11:54 58.6 °F 55.4 °F 29.9 in ESE 0.9 mph 2 mph 89% 0 in 121 W/m2
11:59 58.6 °F 55 °F 29.9 in WNW 0.9 mph 2 mph 88% 0 in 118 W/m2
12:04 58.6 °F 55 °F 29.9 in NW 0.9 mph 3 mph 88% 0 in 188 W/m2
12:09 58.8 °F 55.2 °F 29.9 in NNE 2 mph 4 mph 88% 0 in 241 W/m2
12:15 59.2 °F 55.4 °F 29.9 in East 2.9 mph 8 mph 87% 0 in 214 W/m2
12:20 59.2 °F 55 °F 29.9 in East 2 mph 4 mph 86% 0 in 278 W/m2
12:25 59.5 °F 55.4 °F 29.9 in Calm   7 mph 86% 0 in 156 W/m2
12:30 59.7 °F 55.6 °F 29.9 in NE 2.9 mph 4 mph 86% 0 in 213 W/m2
12:35 59.9 °F 55.4 °F 29.9 in Calm   9 mph 85% 0 in 148 W/m2
12:40 59.9 °F 55.4 °F 29.9 in NE 0.9 mph 3 mph 85% 0 in 232 W/m2
12:45 60.1 °F 55.6 °F 29.9 in ENE 4 mph 9 mph 85% 0 in 192 W/m2
12:50 60.3 °F 55.4 °F 29.9 in WNW 0.9 mph 3 mph 84% 0 in 278 W/m2
12:55 60.4 °F 55.6 °F 29.9 in Calm   4 mph 84% 0 in 243 W/m2
13:00 60.6 °F 55.4 °F 29.9 in ESE 0.9 mph 8 mph 83% 0 in 408 W/m2
13:05 61 °F 55.8 °F 29.9 in ESE 2.9 mph 6 mph 83% 0 in 308 W/m2
13:10 61.2 °F 55.2 °F 29.9 in ESE 4 mph 8 mph 81% 0 in 281 W/m2
13:15 61.3 °F 55.4 °F 29.9 in NNE 2 mph 5 mph 81% 0 in 206 W/m2
13:20 61.3 °F 55.4 °F 29.9 in NE 0.9 mph 3 mph 81% 0 in 192 W/m2
13:25 61.5 °F 55.6 °F 29.9 in North 0.9 mph 3 mph 81% 0 in 146 W/m2
13:30 61.5 °F 55.2 °F 29.9 in North 0.9 mph 2 mph 80% 0 in 151 W/m2
13:35 61.7 °F 55 °F 29.8 in NE 2 mph 4 mph 79% 0 in 309 W/m2
13:40 62.1 °F 55.8 °F 29.8 in NE 2 mph 4 mph 80% 0 in 327 W/m2
13:45 62.2 °F 55.2 °F 29.8 in North 0.9 mph 2 mph 78% 0 in 223 W/m2
13:50 62.4 °F 55.4 °F 29.8 in NW 4 mph 6 mph 78% 0 in 130 W/m2
13:55 62.4 °F 55.4 °F 29.8 in WNW 2.9 mph 9 mph 78% 0 in 278 W/m2
14:00 62.6 °F 55.9 °F 29.8 in NNE 2 mph 3 mph 79% 0 in 352 W/m2
14:05 63 °F 55.9 °F 29.8 in NNE 0.9 mph 4 mph 78% 0 in 264 W/m2
14:10 63.1 °F 56.1 °F 29.8 in ENE 2 mph 6 mph 78% 0 in 285 W/m2
14:15 63.5 °F 56.5 °F 29.8 in Calm   4 mph 78% 0 in 294 W/m2
14:20 63.7 °F 56.3 °F 29.8 in North 0.9 mph 4 mph 77% 0 in 151 W/m2
14:25 63.9 °F 56.1 °F 29.8 in Calm   11 mph 76% 0 in 195 W/m2
14:30 64 °F 56.7 °F 29.8 in ENE 4.9 mph 7 mph 77% 0 in 264 W/m2
14:35 64.2 °F 56.5 °F 29.8 in NNE 4 mph 7 mph 76% 0 in 244 W/m2
14:40 64.2 °F 56.5 °F 29.8 in NNE 4 mph 4 mph 76% 0 in 271 W/m2
14:45 64.4 °F 56.3 °F 29.8 in ENE 2 mph 6 mph 75% 0 in 308 W/m2
14:50 64.8 °F 56.7 °F 29.8 in NE 2 mph 4 mph 75% 0 in 327 W/m2
14:55 64.9 °F 56.5 °F 29.8 in WNW 0.9 mph 10 mph 74% 0 in 283 W/m2
15:00 65.1 °F 57 °F 29.8 in Calm   7 mph 75% 0 in 410 W/m2
15:05 65.7 °F 57.2 °F 29.8 in ENE 2.9 mph 9 mph 74% 0 in 385 W/m2
15:10 65.8 °F 57.4 °F 29.8 in ENE 2 mph 7 mph 74% 0 in 404 W/m2
15:15 65.8 °F 57 °F 29.8 in East 2 mph 5 mph 73% 0 in 176 W/m2
15:20 65.7 °F 56.3 °F 29.8 in East 6.9 mph 7 mph 72% 0 in 158 W/m2
15:25 65.5 °F 56.3 °F 29.8 in East 8.1 mph 8 mph 72% 0 in 185 W/m2
15:30 65.5 °F 56.7 °F 29.8 in ENE 2.9 mph 4 mph 73% 0 in 223 W/m2
15:35 65.7 °F 56.8 °F 29.8 in ENE 2 mph 5 mph 73% 0 in 199 W/m2
15:40 65.7 °F 56.3 °F 29.8 in East 2.9 mph 5 mph 72% 0 in 221 W/m2
15:45 65.8 °F 56.5 °F 29.8 in ESE 0.9 mph 4 mph 72% 0 in 297 W/m2
15:50 66 °F 56.3 °F 29.8 in NNW 2 mph 8 mph 71% 0 in 309 W/m2
15:55 66.4 °F 56.3 °F 29.8 in ESE 0.9 mph 3 mph 70% 0 in 257 W/m2
16:00 66.4 °F 56.3 °F 29.7 in East 4.9 mph 6 mph 70% 0 in 290 W/m2
16:05 66.7 °F 56.7 °F 29.7 in NE 2.9 mph 4 mph 70% 0 in 367 W/m2
16:10 66.9 °F 55.9 °F 29.7 in Calm   8 mph 68% 0 in 216 W/m2
16:15 66.9 °F 55.9 °F 29.7 in Calm   5 mph 68% 0 in 169 W/m2
16:20 66.7 °F 55.8 °F 29.7 in East 2.9 mph 4 mph 68% 0 in 220 W/m2
16:25 66.6 °F 56.1 °F 29.7 in NE 2 mph 9 mph 69% 0 in 190 W/m2
16:30 66.6 °F 56.1 °F 29.7 in NE 0.9 mph 5 mph 69% 0 in 185 W/m2
16:35 66.4 °F 55.9 °F 29.7 in Calm   3 mph 69% 0 in 165 W/m2
16:40 66.4 °F 55.9 °F 29.7 in ESE 6.9 mph 7 mph 69% 0 in 153 W/m2
16:45 66.4 °F 56.3 °F 29.7 in East 2 mph 3 mph 70% 0 in 163 W/m2
16:50 66.4 °F 56.3 °F 29.7 in Calm   3 mph 70% 0 in 160 W/m2
16:55 66.4 °F 55.9 °F 29.7 in NNE 4.9 mph 6 mph 69% 0 in 139 W/m2
17:00 66.4 °F 56.3 °F 29.7 in ENE 0.9 mph 2 mph 70% 0 in 113 W/m2
17:05 66.2 °F 55.8 °F 29.7 in NE 2 mph 3 mph 69% 0 in 100 W/m2
17:10 66.2 °F 55.8 °F 29.7 in East 2 mph 8 mph 69% 0 in 91 W/m2
17:15 66 °F 55.2 °F 29.7 in East 0.9 mph 5 mph 68% 0 in 88 W/m2
17:20 66 °F 55.2 °F 29.7 in Calm   2 mph 68% 0 in 91 W/m2
17:25 65.8 °F 55 °F 29.7 in SE 4.9 mph 6 mph 68% 0 in 84 W/m2
17:30 65.8 °F 55.4 °F 29.7 in East 2 mph 6 mph 69% 0 in 77 W/m2
17:35 65.7 °F 55.2 °F 29.7 in ENE 2 mph 6 mph 69% 0 in 69 W/m2
17:40 65.7 °F 55.2 °F 29.7 in Calm   3 mph 69% 0 in 63 W/m2
17:45 65.5 °F 55.4 °F 29.7 in East 2 mph 6 mph 70% 0 in 60 W/m2
17:50 65.5 °F 55.8 °F 29.7 in Calm   1 mph 71% 0 in 62 W/m2
17:55 65.1 °F 55 °F 29.7 in SSE 0.9 mph 3 mph 70% 0 in 67 W/m2
18:00 64.9 °F 55.4 °F 29.7 in ENE 4 mph 5 mph 71% 0 in 65 W/m2
18:05 64.9 °F 54.9 °F 29.7 in East 0.9 mph 3 mph 70% 0 in 58 W/m2
18:10 64.9 °F 56.1 °F 29.7 in ENE 0.9 mph 2 mph 73% 0 in 47 W/m2
18:15 64.8 °F 55.2 °F 29.7 in ENE 2 mph 4 mph 71% 0 in 37 W/m2
18:20 64.8 °F 55.2 °F 29.7 in ENE 2.9 mph 3 mph 71% 0 in 30 W/m2
18:25 64.8 °F 55.2 °F 29.7 in East 0.9 mph 4 mph 71% 0 in 23 W/m2
18:30 64.8 °F 55.2 °F 29.7 in ENE 0.9 mph 3 mph 71% 0 in 18 W/m2
18:36 64.8 °F 55.2 °F 29.7 in Calm   3 mph 71% 0 in 16 W/m2
18:41 64.8 °F 54.7 °F 29.7 in NE 2.9 mph 3 mph 70% 0 in 12 W/m2
18:46 64.8 °F 55.2 °F 29.7 in NE 0.9 mph 5 mph 71% 0 in 9 W/m2
18:51 64.6 °F 55.4 °F 29.7 in SW 0.9 mph 1 mph 72% 0 in 5 W/m2
18:56 64.2 °F 55 °F 29.7 in ENE 6.9 mph 9 mph 72% 0 in 0 W/m2
19:01 64.2 °F 55.8 °F 29.7 in NE 0.9 mph 1 mph 74% 0 in 0 W/m2
19:06 63.9 °F 55 °F 29.7 in ENE 2.9 mph 9 mph 73% 0 in 0 W/m2
19:11 63.9 °F 56.1 °F 29.7 in Calm     76% 0 in 0 W/m2
19:16 63.5 °F 55.4 °F 29.7 in NE 2.9 mph 8 mph 75% 0 in 0 W/m2
19:21 64 °F 55.2 °F 29.7 in Calm   3 mph 73% 0 in 0 W/m2
19:26 64.2 °F 55.4 °F 29.7 in East 2 mph 8 mph 73% 0 in 0 W/m2
19:31 64.6 °F 55.8 °F 29.7 in ENE 4.9 mph 7 mph 73% 0 in 0 W/m2
19:36 64.6 °F 55.4 °F 29.7 in East 4.9 mph 7 mph 72% 0 in 0 W/m2
19:41 64.8 °F 55.6 °F 29.7 in ENE 0.9 mph 5 mph 72% 0 in 0 W/m2
19:46 64.9 °F 56.5 °F 29.7 in ENE 7 mph 7 mph 74% 0 in 0 W/m2
19:51 64.6 °F 56.8 °F 29.7 in Calm   2 mph 76% 0 in 0 W/m2
19:56 64.2 °F 56.8 °F 29.7 in Calm   3 mph 77% 0 in 0 W/m2
20:01 63.9 °F 57.6 °F 29.7 in Calm   4 mph 80% 0 in 0 W/m2
20:06 63.1 °F 57.6 °F 29.7 in South 0.9 mph 2 mph 82% 0 in 0 W/m2
20:11 62.6 °F 57.4 °F 29.7 in East 0.9 mph 3 mph 83% 0 in 0 W/m2
20:16 62.2 °F 57.4 °F 29.7 in Calm   2 mph 84% 0.01 in 0 W/m2
20:21 62.1 °F 57.6 °F 29.7 in ENE 0.9 mph 4 mph 85% 0.01 in 0 W/m2
20:26 61.9 °F 57.4 °F 29.7 in NE 0.9 mph 4 mph 85% 0.01 in 0 W/m2
20:31 61.9 °F 57.9 °F 29.7 in NE 4 mph 4 mph 87% 0.01 in 0 W/m2
20:36 61.7 °F 57.7 °F 29.7 in Calm   2 mph 87% 0.01 in 0 W/m2
20:41 61.3 °F 57.7 °F 29.7 in Calm     88% 0.01 in 0 W/m2
20:46 61.2 °F 57.6 °F 29.7 in East 0.9 mph 5 mph 88% 0.01 in 0 W/m2
20:51 61.2 °F 57.9 °F 29.7 in NNE 2 mph 2 mph 89% 0.02 in 0 W/m2
20:56 61 °F 57.7 °F 29.6 in Calm   5 mph 89% 0.02 in 0 W/m2
21:01 61 °F 57.7 °F 29.6 in Calm   1 mph 89% 0.02 in 0 W/m2
21:06 61 °F 58.1 °F 29.6 in ESE 0.9 mph 2 mph 90% 0.02 in 0 W/m2
21:11 61.2 °F 57.9 °F 29.6 in ENE 2.9 mph 7 mph 89% 0.02 in 0 W/m2
21:16 61.9 °F 57.9 °F 29.6 in East 0.9 mph 2 mph 87% 0.01 in 0 W/m2
21:21 62.1 °F 57.7 °F 29.6 in East 2 mph 5 mph 86% 0.01 in 0 W/m2
21:26 62.4 °F 57.9 °F 29.6 in ENE 2 mph 4 mph 85% 0.01 in 0 W/m2
21:31 62.6 °F 58.3 °F 29.6 in Calm   2 mph 86% 0.01 in 0 W/m2
21:36 62.2 °F 58.3 °F 29.6 in SE 0.9 mph 2 mph 87% 0.02 in 0 W/m2
21:41 61.9 °F 58.3 °F 29.6 in Calm   2 mph 88% 0.02 in 0 W/m2
21:46 61.5 °F 57.9 °F 29.6 in NE 0.9 mph 6 mph 88% 0.02 in 0 W/m2
21:51 61.9 °F 57.9 °F 29.6 in ENE 0.9 mph 2 mph 87% 0.01 in 0 W/m2
21:56 62.1 °F 58.1 °F 29.6 in East 0.9 mph 6 mph 87% 0.01 in 0 W/m2
22:01 62.2 °F 57.9 °F 29.6 in ENE 0.9 mph 2 mph 86% 0.01 in 0 W/m2
22:06 62.2 °F 57.7 °F 29.6 in East 2 mph 5 mph 85% 0.01 in 0 W/m2
22:11 62.4 °F 57.9 °F 29.6 in Calm   1 mph 85% 0.01 in 0 W/m2
22:16 62.2 °F 57.7 °F 29.6 in NE 2 mph 5 mph 85% 0.01 in 0 W/m2
22:21 62.4 °F 57.6 °F 29.6 in NE 0.9 mph 3 mph 84% 0.01 in 0 W/m2
22:26 63 °F 57.4 °F 29.6 in Calm   5 mph 82% 0.01 in 0 W/m2
22:31 63 °F 57.4 °F 29.6 in NNE 4 mph 5 mph 82% 0.01 in 0 W/m2
22:36 63.1 °F 57.2 °F 29.6 in ENE 2 mph 3 mph 81% 0 in 0 W/m2
22:41 63.3 °F 57 °F 29.6 in ESE 0.9 mph 7 mph 80% 0 in 0 W/m2
22:46 63.5 °F 56.8 °F 29.6 in Calm   5 mph 79% 0 in 0 W/m2
22:51 63.7 °F 56.7 °F 29.6 in ENE 2 mph 4 mph 78% 0 in 0 W/m2
22:56 64 °F 56.7 °F 29.6 in NNW 0.9 mph 7 mph 77% 0 in 0 W/m2
23:01 64 °F 56.7 °F 29.6 in North 2 mph 4 mph 77% 0 in 0 W/m2
23:06 64.2 °F 56.5 °F 29.6 in NE 4.9 mph 5 mph 76% 0 in 0 W/m2
23:11 64.2 °F 56.5 °F 29.6 in NE 2.9 mph 4 mph 76% 0 in 0 W/m2
23:16 64.2 °F 56.1 °F 29.6 in NNE 2 mph 4 mph 75% 0 in 0 W/m2
23:21 64.4 °F 56.3 °F 29.6 in Calm   5 mph 75% 0 in 0 W/m2
23:26 64.4 °F 56.3 °F 29.6 in North 0.9 mph 4 mph 75% 0 in 0 W/m2
23:31 64.6 °F 56.5 °F 29.6 in ENE 4 mph 5 mph 75% 0 in 0 W/m2
23:37 64.8 °F 56.3 °F 29.6 in North 2 mph 7 mph 74% 0 in 0 W/m2
23:42 64.8 °F 56.3 °F 29.6 in ENE 2.9 mph 4 mph 74% 0 in 0 W/m2
23:47 64.8 °F 56.3 °F 29.6 in ENE 2 mph 4 mph 74% 0 in 0 W/m2
23:52 64.8 °F 56.3 °F 29.6 in ESE 2 mph 3 mph 74% 0 in 0 W/m2
23:57 64.8 °F 55.9 °F 29.6 in NNW 2 mph 5 mph 73% 0 in 0 W/m2
Juneau County Weather
Compliments of Weather Underground - 4 mb